User: anonymous   Login
Location: Veytaux
(46.4185°N, 6.9320°E)
Time: 14:46:38
(UTC+00:00)
Language:

DEBRIS - Orbit

View from above orbital plane
View from above orbital plane
View from above satellite
View from above satellite

Ground track
Ground track

The orbit data is extracted from the following two-line orbital elements,

1 28395U 04031C   22221.02371879  .00002498  00000-0  65912-3 0  9990
2 28395  49.4014 122.3935 5238831 192.1478 147.5452  5.20290365330183
Epoch (UTC): 09 August 2022 00:34:09
Eccentricity: 0.5238831
inclination: 49.4014°
perigee height: 320 km
apogee height: 15060 km
right ascension of ascending node: 122.3935°
argument of perigee: 192.1478°
revolutions per day: 5.20290365
mean anomaly at epoch: 147.5452°
orbit number at epoch: 33018

The dashed part of the orbit path shows where the satellite is in the earth's shadow,  

DLR